Regional Weather Roundup
Issued by NWS

Home | Current Version | Previous Version | Text Only | Print | Product List | Glossary Off
Versions: 1 2 3 4 5 6 7 8 9 10 11 12 13 14 15 16 17 18 19 20 21 22 23 24 25 26 27 28 29 30 31 32 33 34 35 36 37 38 39 40 41 42 43 44 45 46 47 48 49 50

000
ASUS43 KLMK 280002
RWRKY
KENTUCKY REGIONAL WEATHER ROUNDUP
NATIONAL WEATHER SERVICE LOUISVILLE KY
800 PM EDT MON APR 27 2015

NOTE "FAIR" INDICATES FEW OR NO CLOUDS BELOW 12,000 FEET
WITH NO SIGNIFICANT WEATHER AND/OR OBSTRUCTIONS TO VISIBILITY.

KYZ001>023-026-027-061>063-070>075-280100-
WESTERN AND SOUTH CENTRAL KENTUCKY

CITY           SKY/WX    TMP DP  RH WIND       PRES   REMARKS
PADUCAH        MOCLDY    62  41  46 N9        29.97S
HENDERSON      CLEAR     61  37  41 N10       29.99S
OWENSBORO      CLEAR     62  40  44 N7        29.99S
HOPKINSVILLE   CLEAR     58  42  56 N8        29.97R
BOWLING GREEN  PTCLDY    62  36  37 N5        29.96S
GLASGOW        NOT AVBL
$$

KYZ024-025-028>034-038-045-046-053-280100-
NORTH CENTRAL KENTUCKY

CITY           SKY/WX    TMP DP  RH WIND       PRES   REMARKS
LOUISVILLE/SDF PTCLDY    61  38  42 N16G25    29.98R
LOUISVILLE/LOU PTCLDY    60  38  43 N10G20    29.99R
FORT KNOX      PTCLDY    61  38  43 N8        29.96R
$$

KYZ035>037-039>044-047>052-055>060-089>105-280100-
NORTHEAST KENTUCKY

CITY           SKY/WX    TMP DP  RH WIND       PRES   REMARKS
LEXINGTON      PTCLDY    57  37  47 N10       29.97R
COVINGTON      CLOUDY    55  38  52 N13       30.01R
FRANKFORT      PTCLDY    59  35  40 NW10      29.97R
$$

KYZ054-064>069-076>088-106>120-280100-
SOUTHEAST KENTUCKY

CITY           SKY/WX    TMP DP  RH WIND       PRES   REMARKS
JACKSON        CLOUDY    56  33  42 NW5       29.95S
LONDON         CLEAR     60  31  33 N6        29.95F
SOMERSET       NOT AVBL
MIDDLESBORO    CLEAR     59  34  39 N8        29.94S
MONTICELLO     CLEAR     61  38  42 N7        29.98S
$$



USA.gov is the U.S. government's official web portal to all federal, state and local government web resources and services.